Billings, MT

1:32 PM MDT on March 29, 2017 (GMT -0600)
Billings Logan International

Weather History for KBIL - April, 2012

Change the Weather History Date:

Monday, April 2, 2012

  Actual Average Record
Temperature  
Mean Temperature 46 °F 42 °F  
Max Temperature 54 °F 53 °F 75 °F (1990)
Min Temperature 37 °F 31 °F -5 °F (1936)
Degree Days  
Heating Degree Days 19 23  
Month to date heating degree days 33 46  
Since 1 July heating degree days 5091 5856  
Cooling Degree Days 0 0  
Month to date cooling degree days 0 0  
Year to date cooling degree days 0 0  
Moisture  
Dew Point 17 °F    
Average Humidity 36    
Maximum Humidity 54    
Minimum Humidity 17    
Precipitation  
Precipitation T in 0.04 in 0.57 in (1964)
Month to date precipitation 0.02 0.09  
Year to date precipitation 1.57 2.11  
Snow  
Snow 0.00 in 0.30 in 4.60 in (1940)
Month to date snowfall 0.0 0.7  
Since 1 July snowfall 34.7 45.4  
Snow Depth 0.00 in    
Sea Level Pressure  
Sea Level Pressure 30.15 in    
Wind  
Wind Speed 9 mph (NW)    
Max Wind Speed 22 mph    
Max Gust Speed 25 mph    
Visibility 10 miles    
Events Rain    
T = Trace of Precipitation, MM = Missing Value Source: NWS Daily Summary

Daily Weather History Graph

Daily Weather History Graph

Search for Another Location

Airport or City:

Trip Planner

Search our weather history database for the weather conditions in past years. The results will help you decide how hot, cold, wet, or windy it might be!

Date:

Astronomy

Apr. 02, 2012 Rise Set
Actual Time 6:51 AM MDT 7:44 PM MDT
Civil Twilight 6:21 AM MDT 8:14 PM MDT
Nautical Twilight 5:45 AM MDT 8:51 PM MDT
Astronomical Twilight 5:07 AM MDT 9:29 PM MDT
Moon 3:11 PM MDT (4/2) 4:20 AM MDT (4/2)
Length of Visible Light 13h 53m
Length of Day
12h 53m
Waxing Gibbous, 79% of the Moon is Illuminated
Apr 2
Waxing Gibbous
Apr 6
Full
Apr 13
Last Quarter
Apr 21
New
Apr 29
First Quarter

Hourly Weather History & Observations

Time (MDT) Temp. Windchill Dew Point Humidity Pressure Visibility Wind Dir Wind Speed Gust Speed Precip Events Conditions
12:53 AM 39.9 °F 35.1 °F 34.0 °F 79% 29.93 in 10.0 mi NNW 6.9 mph - 0.02 in Rain Light Rain
1:10 AM 39.2 °F 31.6 °F 33.8 °F 81% 29.93 in 10.0 mi WNW 12.7 mph - 0.00 in Rain Light Rain
1:53 AM 39.0 °F 29.6 °F 32.0 °F 76% 29.94 in 10.0 mi NNW 18.4 mph 23.0 mph 0.00 in   Overcast
2:53 AM 39.0 °F 32.3 °F 24.1 °F 55% 29.98 in 10.0 mi West 10.4 mph - N/A   Overcast
3:53 AM 39.0 °F 32.3 °F 19.9 °F 46% 30.02 in 10.0 mi West 10.4 mph - N/A   Overcast
4:53 AM 39.0 °F 30.6 °F 18.0 °F 43% 30.06 in 10.0 mi NNW 15.0 mph - N/A   Overcast
5:53 AM 39.0 °F 31.0 °F 15.1 °F 38% 30.09 in 10.0 mi WNW 13.8 mph - N/A   Mostly Cloudy
6:53 AM 37.9 °F 28.2 °F 16.0 °F 41% 30.13 in 10.0 mi WNW 18.4 mph 24.2 mph N/A   Mostly Cloudy
7:53 AM 37.9 °F 28.9 °F 15.1 °F 39% 30.17 in 10.0 mi NW 16.1 mph - N/A   Mostly Cloudy
8:53 AM 39.0 °F 31.8 °F 15.1 °F 38% 30.20 in 10.0 mi NW 11.5 mph - N/A   Overcast
9:53 AM 41.0 °F 33.9 °F 16.0 °F 36% 30.22 in 10.0 mi NW 12.7 mph - N/A   Overcast
10:53 AM 43.0 °F 35.1 °F 15.1 °F 32% 30.24 in 10.0 mi NW 17.3 mph - N/A   Overcast
11:53 AM 45.0 °F 38.9 °F 15.1 °F 30% 30.22 in 10.0 mi North 12.7 mph - N/A   Mostly Cloudy
12:53 PM 48.0 °F - 12.0 °F 24% 30.22 in 10.0 mi Calm Calm - N/A   Partly Cloudy
1:53 PM 48.9 °F - 9.0 °F 20% 30.21 in 10.0 mi Variable 6.9 mph 18.4 mph N/A   Partly Cloudy
2:53 PM 52.0 °F - 9.0 °F 18% 30.20 in 10.0 mi Variable 6.9 mph - N/A   Partly Cloudy
3:53 PM 53.1 °F - 10.9 °F 19% 30.19 in 10.0 mi Variable 6.9 mph - N/A   Partly Cloudy
4:53 PM 52.0 °F - 9.0 °F 18% 30.19 in 10.0 mi North 3.5 mph - N/A   Partly Cloudy
5:53 PM 52.0 °F - 10.9 °F 19% 30.19 in 10.0 mi NE 6.9 mph - N/A   Partly Cloudy
6:53 PM 51.1 °F - 9.0 °F 18% 30.19 in 10.0 mi Calm Calm - N/A   Partly Cloudy
7:53 PM 48.0 °F - 10.0 °F 22% 30.22 in 10.0 mi Calm Calm - N/A   Clear
8:53 PM 46.9 °F - 12.9 °F 25% 30.24 in 10.0 mi SSE 5.8 mph - N/A   Clear
9:53 PM 44.1 °F 40.1 °F 17.1 °F 34% 30.25 in 10.0 mi SSE 6.9 mph - N/A   Clear
10:53 PM 43.0 °F 38.8 °F 18.0 °F 37% 30.25 in 10.0 mi SSW 6.9 mph - N/A   Clear
11:53 PM 41.0 °F 36.4 °F 18.0 °F 40% 30.24 in 10.0 mi South 6.9 mph - N/A   Clear